Wind_Speed
6 6 6 6 5 5 5 6 5 5 5 5 5 6 7 8 9 10 10 10 9 9 9 9 9 10 12 15 17 18 19 19 19 25 27 26 26 28 26 30 28 29 33 30 26
8 8 8 8 8 8 8 7 6 6 6 6 7 7 8 8 9 10 9 9 10 10 11 11 12 13 14 14 15 18 19 18 30 26 31 29 26 30 25 30 32 32 32 32 30
6 7 8 8 8 9 9 8 7 6 7 7 7 8 8 8 8 8 9 9 10 11 12 13 14 14 14 15 14 16 20 23 22 27 29 30 28 31 28 30 39 30 34 29 32
7 8 8 9 9 9 9 8 8 8 8 9 9 9 9 9 8 8 9 9 10 10 11 11 12 12 13 13 14 15 17 19 22 23 25 28 30 32 31 37 36 33 35 34 36
8 8 10 11 12 11 10 11 11 12 12 11 11 11 11 10 10 10 10 9 11 11 12 12 13 12 12 13 13 15 16 17 18 19 20 23 25 29 31 31 35 36 38 39 39
9 9 10 11 11 11 12 13 13 13 13 14 13 11 11 10 10 9 9 9 9 9 9 10 10 12 14 15 17 18 20 21 21 23 22 23 26 27 29 31 33 34 36 38 39
12 11 11 12 12 12 12 12 12 13 13 12 11 10 9 8 8 9 9 9 9 9 9 9 10 12 13 15 17 19 22 24 26 27 31 28 32 35 34 35 37 37 38 40 40
13 14 13 13 12 12 12 12 12 12 12 11 11 10 9 9 8 8 9 9 9 9 10 12 13 15 17 19 20 21 23 26 34 26 34 28 26 43 37 36 39 40 41 43 44
15 16 17 15 14 13 12 13 13 12 12 12 11 11 10 10 10 9 9 10 11 12 14 16 17 18 18 19 22 22 10 18 32 35 32 31 20 45 41 36 40 40 42 44 44
16 16 17 19 17 15 14 14 14 14 13 13 12 12 11 11 12 11 12 13 14 15 15 16 16 17 17 17 10 18 20 24 23 36 30 26 26 35 40 31 36 37 39 41 42
18 18 17 18 18 17 15 14 15 15 15 15 14 14 14 14 13 13 13 13 14 14 14 14 15 15 16 16 16 17 20 21 26 30 25 24 25 27 40 27 34 32 35 35 37
20 19 17 16 16 16 17 17 17 17 17 16 16 15 15 14 13 13 14 14 14 14 14 14 14 15 15 15 16 17 17 19 22 27 23 24 24 27 32 31 31 33 35 35 35
21 20 19 18 17 17 19 20 19 19 20 17 16 16 15 15 14 13 13 13 13 13 13 13 15 15 16 16 16 16 17 18 19 22 22 22 19 18 32 32 32 33 32 33 33
23 22 20 20 18 17 17 18 19 20 20 18 17 18 17 17 16 15 13 13 13 13 13 14 15 16 16 16 16 18 17 17 17 18 11 20 19 20 34 37 34 32 30 31 33
24 24 22 22 20 18 18 18 18 19 18 19 17 17 17 17 16 15 14 14 14 14 14 14 15 16 15 15 16 18 20 19 20 19 20 20 15 13 29 30 30 19 32 33 31
26 26 23 22 22 20 18 18 18 18 20 18 17 16 18 18 17 17 16 15 15 13 14 14 15 15 15 14 16 17 18 19 19 22 19 10 20 15 24 17 37 35 34 34 28
28 26 24 23 21 20 18 18 18 18 21 19 19 20 19 18 18 19 18 17 15 13 14 14 15 16 15 14 14 16 19 16 13 12 15 28 30 20 33 32 31 34 34 32 29
31 26 26 25 23 21 20 19 19 20 22 19 20 21 22 22 21 21 20 19 17 15 15 14 17 16 15 13 15 16 17 18 17 16 15 26 23 27 29 33 30 31 34 31 29
33 29 28 27 26 24 23 22 20 24 23 21 22 23 24 24 23 22 22 21 19 18 16 14 18 17 16 14 14 18 18 19 20 23 22 13 19 36 31 30 28 30 32 32 30
33 33 31 30 29 28 27 23 25 25 25 25 25 25 24 26 23 23 25 23 22 20 19 17 18 16 17 15 14 15 19 22 26 24 24 9 19 24 31 22 35 31 32 30 29
32 34 32 32 32 31 29 28 30 26 27 26 25 27 25 26 23 24 28 25 24 22 21 20 18 19 18 16 16 18 21 20 20 23 25 24 16 22 29 34 34 31 32 32 31
38 37 32 35 36 34 32 32 34 32 29 28 26 25 26 27 25 25 28 28 24 25 24 22 21 20 19 19 18 18 19 22 25 25 26 25 20 28 30 29 32 32 35 34 32
41 40 41 40 38 38 37 37 35 35 31 33 32 28 27 29 29 28 29 29 27 26 26 24 23 21 23 19 22 17 23 23 24 23 23 25 21 28 28 33 33 36 33 31 31
40 41 42 43 41 39 38 36 35 34 33 31 33 33 31 29 28 31 32 31 29 29 25 26 24 23 20 22 27 28 26 23 26 25 25 23 24 22 27 31 33 31 31 30 32
40 43 41 42 42 39 40 38 35 35 33 33 33 32 31 28 27 26 29 33 30 31 29 27 25 26 25 25 25 25 26 26 26 26 23 25 24 24 28 32 33 32 29 31 32
38 40 40 39 39 41 38 38 35 38 37 36 33 33 34 30 30 29 27 29 31 32 31 29 27 28 27 28 27 25 23 26 24 26 21 25 24 21 31 37 32 32 28 29 30
31 36 37 37 37 38 35 35 35 38 39 37 37 35 35 34 35 32 29 27 28 29 31 31 28 31 29 28 30 29 24 22 22 19 20 21 28 28 33 34 33 31 26 29 30
Wind_Direction
282 280 282 287 290 290 285 273 261 248 245 252 259 265 269 272 275 279 279 275 272 263 260 260 261 263 260 253 248 248 249 252 245 244 257 258 258 257 263 264 256 258 260 266 259
292 287 281 280 282 285 286 280 269 262 256 259 263 265 265 269 271 271 270 270 271 272 271 269 274 276 276 269 259 254 249 245 247 255 259 264 258 261 258 259 263 258 258 261 264
311 304 300 295 288 286 284 275 266 264 269 272 272 271 270 270 269 267 265 264 267 274 275 274 275 275 273 269 265 259 244 267 262 260 262 267 267 264 263 262 255 266 265 261 259
303 303 300 297 294 292 288 280 271 269 270 276 281 282 277 274 270 270 275 276 276 277 276 278 278 273 270 268 265 264 266 268 268 268 266 266 263 270 262 264 272 265 265 265 263
300 298 296 293 293 290 280 277 276 277 278 279 278 278 276 275 276 276 277 281 278 282 282 286 286 284 277 274 273 274 273 273 274 271 270 271 270 270 272 269 270 271 269 267 265
296 299 303 301 297 294 287 283 279 278 280 283 283 280 277 277 276 275 279 285 287 285 282 282 283 282 280 281 279 280 279 277 277 276 274 278 275 274 273 274 273 273 272 271 270
296 296 301 308 306 298 295 293 288 286 286 286 286 285 282 276 275 279 284 291 295 295 295 295 298 299 299 295 293 290 288 285 281 280 280 281 281 275 277 277 278 277 277 276 274
297 294 291 299 307 307 299 292 290 290 290 291 288 283 281 278 281 281 285 298 305 306 306 307 306 304 304 302 299 297 295 296 287 285 283 285 285 283 277 277 278 278 275 276 275
294 293 290 288 298 303 301 299 297 295 291 291 287 281 278 275 275 276 303 305 306 302 307 310 310 307 305 302 303 296 298 280 290 289 287 289 266 285 286 287 282 279 277 275 274
293 290 285 283 285 292 295 292 290 291 291 290 287 283 278 274 274 278 310 312 310 313 317 314 310 305 304 302 265 248 286 288 281 289 301 294 287 287 289 289 283 282 279 278 276
289 293 291 281 278 279 285 289 285 284 285 285 283 280 279 282 283 278 296 305 311 313 316 319 319 319 311 308 302 294 294 290 286 295 301 295 292 293 292 298 292 290 288 286 286
288 289 289 284 278 276 279 285 288 283 276 278 278 275 275 278 282 284 289 302 311 324 329 323 325 326 326 326 321 313 307 300 298 296 301 298 301 293 292 297 289 291 289 289 288
287 288 283 280 280 280 280 282 282 279 276 272 272 270 267 272 279 281 288 301 313 323 329 332 330 332 328 327 322 320 311 300 297 298 306 302 316 299 297 292 289 288 288 289 291
285 285 279 276 282 286 286 282 280 276 275 270 269 267 266 266 272 275 282 299 310 317 321 323 329 329 329 330 331 324 324 314 306 306 312 296 305 298 292 308 298 293 296 297 295
278 278 278 272 278 284 288 285 279 274 272 276 265 265 266 264 269 270 279 295 303 310 315 319 324 325 323 325 329 327 324 319 310 306 307 315 297 309 290 292 315 311 304 304 300
270 269 267 268 271 277 281 282 279 274 267 268 268 263 264 267 265 268 279 288 293 300 306 310 314 316 315 319 324 323 322 317 314 310 330 278 313 270 279 275 294 303 305 304 303
266 263 260 258 258 264 270 273 272 270 276 269 266 265 263 262 267 274 279 282 285 294 297 299 305 307 309 314 318 319 320 324 323 302 316 287 294 264 267 283 286 295 303 302 301
264 257 255 252 253 255 260 263 262 266 269 269 263 262 265 267 269 274 278 279 277 277 284 291 295 300 304 309 311 315 315 316 315 293 280 288 299 273 297 292 295 295 301 306 301
262 256 252 248 249 252 256 259 261 257 262 261 260 261 263 265 267 270 272 273 274 273 275 275 278 289 292 301 307 312 308 312 314 315 317 331 290 297 297 305 306 302 301 304 307
259 259 253 249 248 251 253 259 261 263 260 260 260 258 263 267 267 268 271 271 269 268 269 271 275 280 286 293 297 298 306 311 317 318 319 285 262 272 293 272 302 303 298 299 302
257 258 256 252 252 254 258 260 260 261 260 258 259 260 258 263 263 266 265 268 266 265 266 269 271 278 281 285 294 299 303 308 305 304 311 309 293 288 276 286 295 296 298 302 300
256 256 255 256 255 257 259 258 265 264 256 256 256 261 262 260 259 258 261 263 264 264 265 268 270 274 281 288 285 288 291 300 304 309 311 306 308 293 299 298 302 303 305 308 308
252 254 255 253 256 257 258 261 260 261 258 257 255 258 264 267 263 258 257 261 257 258 263 269 271 276 282 283 279 284 293 295 296 299 300 299 307 303 304 304 303 308 314 316 315
254 251 252 252 253 254 256 256 257 255 257 259 261 260 262 267 266 265 261 259 255 256 260 265 269 271 267 245 282 295 296 294 298 299 302 304 297 301 296 305 308 314 317 318 320
250 254 254 250 247 249 253 254 254 253 253 258 262 261 259 261 269 269 265 266 259 259 259 262 265 270 272 272 274 282 287 293 299 302 297 301 299 305 306 310 312 315 319 322 324
254 252 249 250 251 249 251 248 250 248 248 255 255 255 257 258 262 267 270 267 263 263 265 266 269 269 272 276 278 281 284 286 290 292 291 304 301 312 294 304 310 314 324 326 326
254 251 251 251 250 246 245 241 246 242 249 247 244 249 251 256 258 264 270 267 269 267 269 268 268 271 271 274 279 284 283 281 288 299 286 294 296 294 296 304 316 314 324 323 326
Height
5870 5869 5869 5868 5867 5867 5866 5866 5865 5865 5865 5865 5865 5865 5865 5864 5864 5864 5865 5865 5865 5865 5866 5866 5866 5867 5868 5869 5870 5870 5873 5874 5875 5874 5871 5872 5873 5873 5875 5873 5875 5875 5872 5873 5876
5869 5868 5868 5867 5867 5866 5865 5864 5864 5864 5864 5864 5864 5863 5863 5863 5863 5863 5863 5863 5864 5864 5864 5864 5864 5865 5865 5866 5866 5867 5870 5871 5866 5869 5868 5868 5870 5868 5871 5868 5867 5868 5869 5869 5870
5868 5867 5867 5866 5865 5864 5864 5863 5863 5863 5863 5863 5863 5862 5862 5861 5862 5861 5861 5862 5862 5862 5862 5862 5862 5862 5862 5862 5863 5863 5863 5862 5864 5863 5864 5863 5864 5862 5865 5864 5857 5864 5861 5865 5864
5868 5867 5866 5865 5864 5863 5862 5862 5861 5862 5862 5862 5861 5861 5860 5860 5861 5859 5860 5860 5860 5860 5860 5860 5859 5859 5859 5860 5860 5860 5859 5859 5859 5859 5859 5858 5857 5856 5857 5854 5854 5857 5857 5858 5857
5867 5866 5865 5864 5863 5862 5861 5860 5860 5860 5860 5860 5860 5859 5859 5858 5858 5858 5858 5858 5858 5857 5857 5857 5856 5856 5856 5856 5856 5856 5856 5855 5855 5854 5854 5853 5852 5850 5849 5850 5848 5848 5848 5849 5849
5865 5864 5863 5862 5861 5860 5859 5859 5858 5858 5858 5857 5857 5857 5857 5857 5856 5856 5856 5856 5856 5856 5855 5855 5854 5854 5854 5853 5853 5853 5852 5852 5850 5849 5849 5848 5847 5846 5844 5842 5841 5841 5840 5839 5839
5863 5862 5861 5861 5859 5858 5857 5856 5855 5855 5855 5855 5854 5854 5854 5855 5854 5854 5854 5854 5854 5854 5853 5853 5852 5852 5852 5851 5850 5849 5848 5847 5846 5845 5842 5843 5841 5838 5838 5837 5835 5834 5832 5831 5830
5861 5860 5859 5858 5857 5856 5855 5854 5853 5853 5852 5852 5852 5852 5852 5852 5852 5852 5852 5852 5851 5851 5851 5851 5850 5849 5849 5848 5846 5845 5844 5841 5836 5840 5835 5839 5834 5826 5831 5831 5827 5826 5824 5821 5820
5859 5857 5856 5856 5855 5854 5853 5852 5851 5851 5850 5850 5850 5849 5850 5849 5850 5850 5850 5849 5849 5849 5848 5848 5847 5846 5845 5844 5842 5841 5841 5838 5832 5830 5831 5831 5830 5818 5822 5821 5817 5816 5813 5812 5809
5855 5854 5853 5852 5853 5852 5851 5850 5849 5848 5848 5847 5847 5848 5847 5847 5847 5847 5847 5846 5846 5845 5845 5844 5843 5841 5840 5840 5842 5841 5836 5832 5831 5822 5825 5824 5821 5814 5812 5812 5809 5806 5804 5801 5801
5851 5850 5849 5848 5848 5848 5848 5847 5848 5847 5845 5845 5845 5844 5844 5844 5844 5845 5845 5844 5843 5843 5842 5840 5839 5838 5837 5835 5834 5833 5831 5829 5824 5821 5821 5818 5815 5813 5802 5807 5801 5799 5796 5794 5792
5847 5846 5845 5845 5845 5844 5843 5844 5843 5843 5842 5842 5841 5841 5840 5840 5841 5841 5842 5842 5840 5839 5838 5837 5836 5834 5832 5831 5829 5828 5826 5824 5820 5816 5816 5812 5810 5807 5802 5799 5796 5792 5788 5786 5784
5841 5842 5841 5841 5841 5840 5840 5839 5838 5838 5838 5839 5838 5837 5837 5837 5837 5838 5838 5837 5836 5836 5835 5833 5832 5830 5828 5827 5825 5824 5821 5819 5817 5813 5810 5806 5805 5804 5796 5793 5790 5786 5784 5781 5778
5837 5837 5836 5837 5838 5836 5835 5835 5833 5834 5833 5835 5834 5834 5834 5833 5833 5833 5834 5834 5833 5832 5831 5830 5828 5826 5824 5822 5821 5818 5816 5814 5811 5809 5809 5805 5803 5800 5789 5786 5783 5780 5778 5775 5772
5831 5831 5831 5832 5832 5832 5831 5830 5829 5829 5830 5830 5830 5829 5829 5830 5829 5829 5829 5829 5829 5828 5827 5826 5824 5822 5820 5818 5816 5815 5812 5810 5807 5805 5802 5800 5799 5799 5789 5783 5778 5776 5773 5770 5766
5825 5825 5824 5825 5826 5827 5826 5825 5825 5826 5823 5825 5825 5825 5825 5825 5825 5824 5825 5825 5824 5824 5822 5821 5819 5818 5816 5814 5812 5810 5809 5806 5803 5800 5799 5797 5797 5794 5788 5783 5778 5773 5769 5764 5760
5818 5819 5818 5818 5820 5820 5821 5820 5822 5821 5820 5821 5820 5820 5820 5821 5820 5820 5820 5821 5820 5820 5818 5816 5815 5813 5812 5810 5808 5807 5805 5804 5803 5803 5804 5793 5792 5789 5781 5778 5776 5770 5764 5758 5755
5810 5812 5811 5811 5812 5814 5815 5815 5815 5816 5814 5816 5816 5815 5816 5816 5816 5815 5815 5815 5815 5815 5814 5813 5810 5809 5808 5806 5805 5803 5802 5801 5798 5797 5797 5792 5787 5778 5776 5772 5769 5764 5758 5753 5749
5800 5803 5804 5805 5806 5807 5808 5808 5810 5809 5810 5810 5810 5809 5810 5810 5811 5810 5810 5810 5810 5809 5810 5808 5806 5805 5803 5802 5801 5799 5798 5796 5792 5790 5787 5788 5780 5774 5771 5764 5761 5758 5753 5748 5744
5792 5793 5796 5798 5798 5800 5801 5803 5801 5803 5803 5803 5804 5804 5803 5802 5805 5805 5803 5805 5804 5804 5803 5803 5801 5801 5799 5798 5796 5795 5794 5790 5785 5783 5782 5786 5780 5772 5767 5761 5758 5753 5747 5743 5738
5785 5784 5787 5789 5791 5791 5794 5795 5794 5794 5797 5797 5797 5796 5797 5796 5798 5798 5797 5798 5798 5798 5797 5797 5797 5796 5794 5793 5791 5789 5786 5786 5784 5780 5775 5772 5773 5765 5761 5756 5753 5748 5742 5737 5732
5775 5776 5780 5779 5782 5783 5785 5785 5786 5786 5788 5789 5790 5791 5790 5790 5790 5791 5790 5790 5792 5792 5791 5791 5791 5790 5789 5787 5786 5784 5782 5780 5777 5774 5769 5766 5767 5759 5754 5750 5745 5740 5736 5730 5725
5763 5766 5767 5769 5772 5772 5775 5776 5777 5778 5780 5780 5782 5783 5783 5783 5784 5784 5783 5783 5784 5785 5784 5785 5785 5785 5783 5783 5780 5778 5775 5774 5772 5769 5766 5760 5760 5752 5749 5744 5739 5734 5729 5723 5718
5751 5753 5755 5758 5760 5762 5763 5766 5767 5769 5771 5772 5773 5775 5775 5776 5776 5776 5776 5776 5777 5776 5778 5778 5779 5778 5779 5777 5774 5771 5769 5769 5765 5762 5758 5756 5753 5752 5745 5738 5734 5729 5723 5718 5712
5739 5740 5743 5746 5747 5751 5753 5756 5758 5759 5762 5763 5764 5766 5767 5768 5768 5768 5768 5768 5770 5769 5770 5771 5771 5771 5771 5770 5769 5767 5765 5762 5759 5756 5753 5750 5746 5743 5737 5733 5728 5723 5718 5712 5706
5726 5729 5731 5734 5736 5739 5741 5745 5748 5749 5751 5753 5755 5757 5757 5760 5760 5760 5761 5761 5761 5761 5763 5763 5764 5764 5763 5762 5760 5760 5759 5756 5754 5750 5748 5746 5744 5734 5733 5727 5723 5717 5712 5707 5701
5715 5717 5720 5723 5725 5727 5729 5732 5735 5738 5738 5742 5744 5746 5748 5749 5750 5751 5753 5754 5755 5754 5754 5756 5756 5755 5756 5755 5753 5753 5752 5750 5747 5745 5746 5742 5737 5731 5727 5720 5716 5710 5707 5702 5697